Change the Weather History Date:

Sunday, February 3, 2013

  Actual Average (PAGA) Record (PAGA)
Temperature  
Mean Temperature 6 °F -  
Max Temperature 19 °F -1 °F 41 °F (1982)
Min Temperature -7 °F -16 °F -54 °F (1993)
Degree Days  
Heating Degree Days 59    
Moisture  
Dew Point 3 °F    
Average Humidity 74    
Maximum Humidity 84    
Minimum Humidity 62    
Precipitation  
Precipitation 0.00 in - - ()
Sea Level Pressure  
Sea Level Pressure 29.51 in    
Wind  
Wind Speed 7 mph (NE)    
Max Wind Speed 12 mph    
Max Gust Speed 16 mph    
Visibility 10 miles    
Events      
Averages and records for this station are not official NWS values.
T = Trace of Precipitation, MM = Missing Value Source: NWS Daily Summary

Daily Weather History Graph

Daily Weather History Graph

Search for Another Location

Airport or City:

Trip Planner

Search our weather history database for the weather conditions in past years. The results will help you decide how hot, cold, wet, or windy it might be!

Date:

Astronomy

Feb. 03, 2013 Rise Set
Actual Time 10:08 AM AKST 5:30 PM AKST
Civil Twilight 9:12 AM AKST 6:26 PM AKST
Nautical Twilight 8:13 AM AKST 7:25 PM AKST
Astronomical Twilight 7:18 AM AKST 8:20 PM AKST
Moon 4:04 AM AKST (2/3) 10:55 AM AKST (2/3)
Length of Visible Light 9h 13m
Length of Day
7h 21m
Waning Gibbous, 47% of the Moon is Illuminated
Feb 3
Waning Gibbous
Feb 9
New
Feb 17
First Quarter
Feb 25
Full
Mar 4
Last Quarter

Hourly Weather History & Observations

Time (AKST) Temp. Windchill Dew Point Humidity Pressure Visibility Wind Dir Wind Speed Gust Speed Precip Events Conditions
12:53 AM 19.0 °F 8.2 °F 9.0 °F 65% 29.58 in 10.0 mi NE 9.2 mph - N/A   Scattered Clouds
1:53 AM 19.9 °F 7.9 °F 10.0 °F 65% 29.57 in 10.0 mi NE 11.5 mph - N/A   Overcast
3:53 AM 19.0 °F 8.2 °F 10.0 °F 68% 29.54 in 10.0 mi NE 9.2 mph - N/A   Overcast
4:53 AM 16.0 °F 7.4 °F 10.0 °F 77% 29.52 in 10.0 mi NE 5.8 mph - N/A   Overcast
5:53 AM 12.0 °F 0.5 °F 7.0 °F 80% 29.51 in 10.0 mi NE 8.1 mph - N/A   Clear
6:53 AM 12.0 °F 2.7 °F 7.0 °F 80% 29.50 in 10.0 mi ENE 5.8 mph - N/A   Clear
7:53 AM 10.9 °F -1.8 °F 6.1 °F 81% 29.50 in 10.0 mi ENE 9.2 mph - N/A   Clear
8:53 AM 10.0 °F -0.9 °F 5.0 °F 80% 29.50 in 10.0 mi ENE 6.9 mph - N/A   Clear
9:53 AM 6.1 °F - 1.9 °F 83% 29.50 in 10.0 mi Calm Calm - N/A   Mostly Cloudy
10:53 AM 3.9 °F - -0.0 °F 84% 29.49 in 10.0 mi Calm Calm - N/A   Overcast
11:53 AM 10.0 °F - 3.9 °F 76% 29.48 in 10.0 mi Calm Calm - N/A   Scattered Clouds
12:53 PM 15.1 °F 2.5 °F 6.1 °F 68% 29.48 in 10.0 mi NE 10.4 mph - N/A   Overcast
1:20 PM 15.8 °F 2.7 °F 6.8 °F 68% 29.46 in 10.0 mi NE 11.5 mph 16.1 mph N/A   Overcast
1:33 PM 15.8 °F 4.2 °F 6.8 °F 68% 29.46 in 10.0 mi NE 9.2 mph - N/A   Overcast
1:53 PM 16.0 °F 5.3 °F 6.1 °F 65% 29.48 in 10.0 mi ENE 8.1 mph - N/A   Scattered Clouds
2:53 PM 17.1 °F 4.3 °F 6.1 °F 62% 29.48 in 10.0 mi NE 11.5 mph - N/A   Clear
3:53 PM 16.0 °F 4.4 °F 6.1 °F 65% 29.48 in 10.0 mi NE 9.2 mph - N/A   Clear
4:53 PM 15.1 °F 4.2 °F 5.0 °F 64% 29.49 in 10.0 mi ENE 8.1 mph - N/A   Clear
5:53 PM 12.0 °F 5.9 °F 3.9 °F 70% 29.50 in 10.0 mi NE 3.5 mph - N/A   Clear
6:53 PM 7.0 °F - 1.9 °F 80% 29.52 in 10.0 mi Calm Calm - N/A   Clear
7:53 PM -0.0 °F - -4.0 °F 83% 29.53 in 10.0 mi Calm Calm - N/A   Clear
8:53 PM -0.9 °F - -5.1 °F 83% 29.54 in 10.0 mi Calm Calm - N/A   Clear
9:53 PM -4.0 °F - -8.0 °F 83% 29.55 in 10.0 mi Calm Calm - N/A   Clear
10:53 PM -7.1 °F - -11.0 °F 83% 29.57 in 10.0 mi Calm Calm - N/A   Clear
11:53 PM -7.1 °F - -13.0 °F 75% 29.58 in 10.0 mi Calm Calm - N/A   Clear